Time,TemperatureF,DewpointF,PressureIn,WindDirection,WindDirectionDegrees,WindSpeedMPH,WindSpeedGustMPH,Humidity,HourlyPrecipIn,Conditions,Clouds,dailyrainin,SoftwareType,DateUTC
2013-07-31 00:11:00,80.0,75.0,30.04,SE,146,0.0,2.0,85,0.00,,,0.00,,2013-07-31 05:11:00,
2013-07-31 00:22:00,80.0,75.0,30.04,SE,146,0.0,3.0,85,0.00,,,0.00,,2013-07-31 05:22:00,
2013-07-31 00:32:00,80.0,75.0,30.04,SE,146,0.0,3.0,84,0.00,,,0.00,,2013-07-31 05:32:00,
2013-07-31 00:42:00,80.0,75.0,30.04,SE,146,0.0,3.0,84,0.00,,,0.00,,2013-07-31 05:42:00,
2013-07-31 00:52:00,80.0,75.0,30.04,SE,146,0.0,1.0,84,0.00,,,0.00,,2013-07-31 05:52:00,
2013-07-31 01:02:00,79.0,74.0,30.04,SE,146,0.0,3.0,85,0.00,,,0.00,,2013-07-31 06:02:00,
2013-07-31 01:12:00,79.0,74.0,30.04,SE,146,0.0,3.0,85,0.00,,,0.00,,2013-07-31 06:12:00,
2013-07-31 01:22:00,79.0,74.0,30.04,SE,146,0.0,1.0,85,0.00,,,0.00,,2013-07-31 06:22:00,
2013-07-31 01:32:00,79.0,74.0,30.04,SE,146,0.0,1.0,85,0.00,,,0.00,,2013-07-31 06:32:00,
2013-07-31 01:43:00,80.0,75.0,30.04,SE,146,0.0,2.0,85,0.00,,,0.00,,2013-07-31 06:43:00,
2013-07-31 01:53:00,80.0,75.0,30.04,SE,146,0.0,1.0,84,0.00,,,0.00,,2013-07-31 06:53:00,
2013-07-31 02:02:00,80.0,75.0,30.04,SE,146,0.0,1.0,84,0.00,,,0.00,,2013-07-31 07:02:00,
2013-07-31 02:12:00,80.0,75.0,30.04,SE,146,0.0,1.0,84,0.00,,,0.00,,2013-07-31 07:12:00,
2013-07-31 02:22:00,80.0,75.0,30.03,SE,146,0.0,1.0,84,0.00,,,0.00,,2013-07-31 07:22:00,
2013-07-31 02:32:00,80.0,75.0,30.03,SE,146,0.0,1.0,84,0.00,,,0.00,,2013-07-31 07:32:00,
2013-07-31 02:43:00,80.0,75.0,30.03,SE,146,0.0,1.0,84,0.00,,,0.00,,2013-07-31 07:43:00,
2013-07-31 02:52:00,79.0,74.0,30.03,SE,146,0.0,1.0,84,0.00,,,0.00,,2013-07-31 07:52:00,
2013-07-31 03:02:00,79.0,74.0,30.03,SE,146,0.0,1.0,84,0.00,,,0.00,,2013-07-31 08:02:00,
2013-07-31 03:12:00,79.0,74.0,30.02,SE,146,0.0,2.0,84,0.00,,,0.00,,2013-07-31 08:12:00,
2013-07-31 03:22:00,79.0,74.0,30.02,SE,146,0.0,1.0,85,0.00,,,0.00,,2013-07-31 08:22:00,
2013-07-31 03:32:00,79.0,74.0,30.02,SE,146,0.0,1.0,85,0.00,,,0.00,,2013-07-31 08:32:00,
2013-07-31 03:42:00,80.0,75.0,30.02,SSE,152,1.0,4.0,85,0.00,,,0.00,,2013-07-31 08:42:00,
2013-07-31 03:53:00,80.0,75.0,30.02,SSE,153,1.0,4.0,84,0.00,,,0.00,,2013-07-31 08:53:00,
2013-07-31 04:02:00,80.0,75.0,30.02,SSE,153,1.0,4.0,84,0.00,,,0.00,,2013-07-31 09:02:00,
2013-07-31 04:12:00,80.0,75.0,30.01,SSE,153,0.0,2.0,84,0.00,,,0.00,,2013-07-31 09:12:00,
2013-07-31 04:22:00,80.0,75.0,30.01,SSE,153,0.0,1.0,85,0.00,,,0.00,,2013-07-31 09:22:00,
2013-07-31 04:32:00,80.0,75.0,30.01,SSE,153,0.0,2.0,85,0.00,,,0.00,,2013-07-31 09:32:00,
2013-07-31 04:43:00,80.0,75.0,30.01,SSE,153,0.0,2.0,85,0.00,,,0.00,,2013-07-31 09:43:00,
2013-07-31 04:52:00,79.0,74.0,30.01,SSE,153,0.0,1.0,85,0.00,,,0.00,,2013-07-31 09:52:00,
2013-07-31 05:02:00,79.0,74.0,30.01,SSE,153,0.0,1.0,85,0.00,,,0.00,,2013-07-31 10:02:00,
2013-07-31 05:12:00,80.0,76.0,30.02,SSE,153,0.0,2.0,87,0.00,,,0.00,,2013-07-31 10:12:00,
2013-07-31 05:22:00,80.0,76.0,30.02,SSE,153,0.0,3.0,87,0.00,,,0.00,,2013-07-31 10:22:00,
2013-07-31 05:32:00,80.0,76.0,30.02,SSE,153,0.0,3.0,87,0.00,,,0.00,,2013-07-31 10:32:00,
2013-07-31 05:44:00,81.0,77.0,30.02,SSE,153,0.0,3.0,87,0.00,,,0.00,,2013-07-31 10:44:00,
2013-07-31 05:52:00,80.0,76.0,30.02,SSE,153,0.0,1.0,87,0.00,,,0.00,,2013-07-31 10:52:00,
2013-07-31 06:03:00,80.0,76.0,30.02,SSE,153,0.0,1.0,87,0.00,,,0.00,,2013-07-31 11:03:00,
2013-07-31 06:12:00,80.0,76.0,30.03,SSE,153,0.0,1.0,87,0.00,,,0.00,,2013-07-31 11:12:00,
2013-07-31 06:22:00,79.0,75.0,30.02,SSE,153,0.0,0.0,88,0.00,,,0.00,,2013-07-31 11:22:00,
2013-07-31 06:33:00,79.0,75.0,30.02,SSE,153,0.0,0.0,89,0.00,,,0.00,,2013-07-31 11:33:00,
2013-07-31 06:43:00,79.0,75.0,30.02,SSE,153,0.0,0.0,89,0.00,,,0.00,,2013-07-31 11:43:00,
2013-07-31 06:52:00,79.0,75.0,30.02,SSE,153,0.0,0.0,89,0.00,,,0.00,,2013-07-31 11:52:00,
2013-07-31 07:02:00,80.0,77.0,30.03,SSE,153,0.0,1.0,90,0.00,,,0.00,,2013-07-31 12:02:00,
2013-07-31 07:12:00,80.0,77.0,30.03,SSE,153,0.0,1.0,90,0.00,,,0.00,,2013-07-31 12:12:00,
2013-07-31 07:22:00,80.0,76.0,30.03,SSE,153,0.0,1.0,89,0.00,,,0.00,,2013-07-31 12:22:00,
2013-07-31 07:33:00,80.0,76.0,30.03,SSE,153,0.0,1.0,89,0.00,,,0.00,,2013-07-31 12:33:00,
2013-07-31 07:43:00,80.0,76.0,30.04,SSE,153,0.0,1.0,87,0.00,,,0.00,,2013-07-31 12:43:00,
2013-07-31 08:02:00,80.0,75.0,30.04,SSE,153,0.0,1.0,86,0.00,,,0.00,,2013-07-31 13:02:00,
2013-07-31 08:12:00,81.0,76.0,30.04,SSE,153,0.0,3.0,84,0.00,,,0.00,,2013-07-31 13:12:00,
2013-07-31 08:22:00,81.0,75.0,30.04,SSE,153,0.0,4.0,82,0.00,,,0.00,,2013-07-31 13:22:00,
2013-07-31 08:43:00,82.0,76.0,30.04,WSW,248,0.0,6.0,81,0.00,,,0.00,,2013-07-31 13:43:00,
2013-07-31 08:53:00,83.0,76.0,30.04,West,271,3.0,6.0,79,0.00,,,0.00,,2013-07-31 13:53:00,
2013-07-31 09:02:00,83.0,76.0,30.04,West,271,3.0,6.0,79,0.00,,,0.00,,2013-07-31 14:02:00,
2013-07-31 09:12:00,83.0,76.0,30.05,WNW,283,3.0,11.0,80,0.00,,,0.00,,2013-07-31 14:12:00,
2013-07-31 09:22:00,83.0,76.0,30.06,West,265,3.0,7.0,80,0.00,,,0.00,,2013-07-31 14:22:00,
2013-07-31 09:34:00,83.0,76.0,30.06,West,265,3.0,7.0,80,0.00,,,0.00,,2013-07-31 14:34:00,
2013-07-31 09:43:00,83.0,76.0,30.06,West,271,2.0,7.0,80,0.00,,,0.00,,2013-07-31 14:43:00,
2013-07-31 09:53:00,84.0,76.0,30.06,NNW,342,1.0,6.0,78,0.00,,,0.00,,2013-07-31 14:53:00,
2013-07-31 10:02:00,84.0,76.0,30.06,NNW,342,1.0,6.0,78,0.00,,,0.00,,2013-07-31 15:02:00,
2013-07-31 10:12:00,84.0,76.0,30.06,NW,311,5.0,10.0,76,0.00,,,0.00,,2013-07-31 15:12:00,
2013-07-31 10:22:00,84.0,76.0,30.05,West,277,1.0,11.0,77,0.00,,,0.00,,2013-07-31 15:22:00,
2013-07-31 10:33:00,84.0,76.0,30.05,West,277,1.0,11.0,77,0.00,,,0.00,,2013-07-31 15:33:00,
2013-07-31 10:43:00,86.0,76.0,30.05,WNW,298,5.0,9.0,73,0.00,,,0.00,,2013-07-31 15:43:00,
2013-07-31 10:52:00,86.0,76.0,30.05,WNW,300,11.0,15.0,72,0.00,,,0.00,,2013-07-31 15:52:00,
2013-07-31 11:02:00,86.0,76.0,30.05,WNW,300,11.0,15.0,72,0.00,,,0.00,,2013-07-31 16:02:00,
2013-07-31 11:12:00,86.0,75.0,30.05,West,276,7.0,13.0,71,0.00,,,0.00,,2013-07-31 16:12:00,
2013-07-31 11:22:00,86.0,75.0,30.05,NW,315,7.0,11.0,70,0.00,,,0.00,,2013-07-31 16:22:00,
2013-07-31 11:33:00,86.0,75.0,30.05,NW,315,7.0,11.0,70,0.00,,,0.00,,2013-07-31 16:33:00,
2013-07-31 11:44:00,86.0,75.0,30.05,West,277,4.0,12.0,70,0.00,,,0.00,,2013-07-31 16:44:00,
2013-07-31 11:52:00,86.0,75.0,30.05,WNW,293,8.0,13.0,70,0.00,,,0.00,,2013-07-31 16:52:00,
2013-07-31 12:02:00,86.0,75.0,30.05,WNW,293,8.0,13.0,70,0.00,,,0.00,,2013-07-31 17:02:00,
2013-07-31 12:13:00,86.0,75.0,30.04,WNW,300,3.0,14.0,70,0.00,,,0.00,,2013-07-31 17:13:00,
2013-07-31 12:22:00,87.0,75.0,30.03,WSW,258,7.0,14.0,67,0.00,,,0.00,,2013-07-31 17:22:00,
2013-07-31 12:33:00,88.0,75.0,30.03,West,277,5.0,12.0,66,0.00,,,0.00,,2013-07-31 17:33:00,
2013-07-31 12:43:00,88.0,75.0,30.03,West,277,5.0,12.0,66,0.00,,,0.00,,2013-07-31 17:43:00,
2013-07-31 12:53:00,87.0,75.0,30.02,WNW,294,4.0,12.0,67,0.00,,,0.00,,2013-07-31 17:53:00,
2013-07-31 13:02:00,88.0,76.0,30.02,NW,307,2.0,11.0,67,0.00,,,0.00,,2013-07-31 18:02:00,
2013-07-31 13:12:00,88.0,76.0,30.02,NW,307,2.0,11.0,67,0.00,,,0.00,,2013-07-31 18:12:00,
2013-07-31 13:22:00,89.0,76.0,30.01,SW,224,5.0,14.0,65,0.00,,,0.00,,2013-07-31 18:22:00,
2013-07-31 13:32:00,89.0,76.0,30.01,SW,224,5.0,14.0,65,0.00,,,0.00,,2013-07-31 18:32:00,
2013-07-31 13:43:00,89.0,75.0,30.01,WSW,256,5.0,13.0,64,0.00,,,0.00,,2013-07-31 18:43:00,
2013-07-31 13:52:00,89.0,75.0,29.99,WSW,255,5.0,11.0,64,0.00,,,0.00,,2013-07-31 18:52:00,
2013-07-31 14:03:00,89.0,75.0,29.99,WSW,255,5.0,11.0,64,0.00,,,0.00,,2013-07-31 19:03:00,
2013-07-31 14:12:00,89.0,75.0,30.00,SSW,209,5.0,12.0,63,0.00,,,0.00,,2013-07-31 19:12:00,
2013-07-31 15:03:00,77.0,72.0,29.99,North,355,9.0,15.0,86,0.57,,,0.57,,2013-07-31 20:03:00,
2013-07-31 15:12:00,77.0,72.0,29.99,North,355,9.0,15.0,86,0.57,,,0.57,,2013-07-31 20:12:00,
2013-07-31 15:22:00,77.0,72.0,29.99,North,355,9.0,15.0,86,0.57,,,0.57,,2013-07-31 20:22:00,
2013-07-31 15:32:00,76.0,72.0,30.00,West,271,4.0,20.0,86,0.40,,,0.59,,2013-07-31 20:32:00,
2013-07-31 15:43:00,76.0,72.0,29.99,West,267,6.0,11.0,87,0.04,,,0.61,,2013-07-31 20:43:00,
2013-07-31 15:52:00,76.0,73.0,29.98,SSW,192,1.0,7.0,89,0.05,,,0.62,,2013-07-31 20:52:00,
2013-07-31 16:02:00,76.0,72.0,29.97,SW,221,2.0,6.0,88,0.05,,,0.62,,2013-07-31 21:02:00,
2013-07-31 16:13:00,76.0,72.0,29.97,SW,221,2.0,6.0,88,0.05,,,0.62,,2013-07-31 21:13:00,
2013-07-31 16:22:00,77.0,73.0,29.96,SW,221,0.0,3.0,88,0.03,,,0.62,,2013-07-31 21:22:00,
2013-07-31 16:32:00,77.0,73.0,29.96,SW,221,0.0,3.0,88,0.03,,,0.62,,2013-07-31 21:32:00,
2013-07-31 16:43:00,79.0,75.0,29.96,SW,221,0.0,1.0,88,0.02,,,0.62,,2013-07-31 21:43:00,
2013-07-31 16:53:00,80.0,75.0,29.97,SW,221,1.0,5.0,84,0.00,,,0.62,,2013-07-31 21:53:00,
2013-07-31 17:02:00,80.0,75.0,29.97,SW,221,1.0,5.0,84,0.00,,,0.62,,2013-07-31 22:02:00,
2013-07-31 17:13:00,82.0,76.0,29.97,SW,224,1.0,10.0,81,0.01,,,0.63,,2013-07-31 22:13:00,
2013-07-31 17:22:00,83.0,76.0,29.96,West,278,4.0,10.0,79,0.01,,,0.63,,2013-07-31 22:22:00,
2013-07-31 17:33:00,83.0,76.0,29.96,West,279,1.0,4.0,79,0.01,,,0.63,,2013-07-31 22:33:00,
2013-07-31 17:43:00,83.0,76.0,29.96,West,279,1.0,4.0,79,0.01,,,0.63,,2013-07-31 22:43:00,
2013-07-31 17:53:00,83.0,74.0,29.94,SW,223,3.0,6.0,74,0.01,,,0.63,,2013-07-31 22:53:00,
2013-07-31 18:02:00,83.0,74.0,29.94,SW,223,3.0,6.0,74,0.01,,,0.63,,2013-07-31 23:02:00,
2013-07-31 18:12:00,84.0,74.0,29.93,SW,224,0.0,6.0,73,0.00,,,0.63,,2013-07-31 23:12:00,
2013-07-31 18:22:00,84.0,75.0,29.95,SW,224,0.0,1.0,74,0.00,,,0.63,,2013-07-31 23:22:00,
2013-07-31 18:32:00,84.0,76.0,29.95,SW,224,0.0,3.0,77,0.00,,,0.63,,2013-07-31 23:32:00,
2013-07-31 18:42:00,84.0,76.0,29.95,SW,224,0.0,3.0,77,0.00,,,0.63,,2013-07-31 23:42:00,
2013-07-31 18:52:00,83.0,75.0,29.95,SW,224,0.0,4.0,78,0.00,,,0.63,,2013-07-31 23:52:00,
2013-07-31 19:02:00,83.0,75.0,29.95,SW,222,0.0,4.0,78,0.00,,,0.63,,2013-08-01 00:02:00,
2013-07-31 19:12:00,83.0,75.0,29.95,SW,222,0.0,4.0,78,0.00,,,0.63,,2013-08-01 00:12:00,
2013-07-31 19:22:00,83.0,76.0,29.96,South,191,1.0,4.0,79,0.00,,,0.63,,2013-08-01 00:22:00,
2013-07-31 19:32:00,83.0,76.0,29.96,SE,138,0.0,3.0,80,0.00,,,0.63,,2013-08-01 00:32:00,
2013-07-31 19:43:00,83.0,76.0,29.96,SE,138,0.0,3.0,80,0.00,,,0.63,,2013-08-01 00:43:00,
2013-07-31 19:52:00,82.0,76.0,29.96,SE,142,2.0,6.0,82,0.00,,,0.63,,2013-08-01 00:52:00,
2013-07-31 20:02:00,81.0,75.0,29.96,SE,142,1.0,3.0,82,0.00,,,0.63,,2013-08-01 01:02:00,
2013-07-31 20:12:00,81.0,75.0,29.96,SE,142,1.0,3.0,82,0.00,,,0.63,,2013-08-01 01:12:00,
2013-07-31 20:22:00,81.0,76.0,29.96,SE,142,0.0,4.0,85,0.00,,,0.63,,2013-08-01 01:22:00,
2013-07-31 20:33:00,80.0,75.0,29.96,SE,142,0.0,2.0,86,0.00,,,0.63,,2013-08-01 01:33:00,
2013-07-31 20:43:00,80.0,75.0,29.96,SE,142,0.0,2.0,86,0.00,,,0.63,,2013-08-01 01:43:00,
2013-07-31 20:53:00,80.0,76.0,29.96,SE,142,1.0,3.0,87,0.00,,,0.63,,2013-08-01 01:53:00,
2013-07-31 21:02:00,80.0,76.0,29.96,SE,142,0.0,2.0,88,0.00,,,0.63,,2013-08-01 02:02:00,
2013-07-31 21:12:00,80.0,76.0,29.96,SE,142,0.0,2.0,88,0.00,,,0.63,,2013-08-01 02:12:00,
2013-07-31 21:22:00,79.0,75.0,29.96,SE,142,0.0,3.0,88,0.00,,,0.63,,2013-08-01 02:22:00,
2013-07-31 21:32:00,79.0,75.0,29.97,SE,142,0.0,4.0,89,0.00,,,0.63,,2013-08-01 02:32:00,
2013-07-31 21:43:00,79.0,75.0,29.97,SE,142,0.0,4.0,89,0.00,,,0.63,,2013-08-01 02:43:00,
2013-07-31 21:53:00,79.0,75.0,29.97,SE,142,0.0,2.0,89,0.00,,,0.63,,2013-08-01 02:53:00,
2013-07-31 22:02:00,79.0,75.0,29.97,SE,142,0.0,1.0,89,0.00,,,0.63,,2013-08-01 03:02:00,
2013-07-31 22:12:00,79.0,75.0,29.97,SE,142,0.0,1.0,89,0.00,,,0.63,,2013-08-01 03:12:00,
2013-07-31 22:22:00,78.0,74.0,29.97,SE,142,0.0,2.0,89,0.00,,,0.63,,2013-08-01 03:22:00,
2013-07-31 22:32:00,79.0,75.0,29.96,SE,142,0.0,2.0,89,0.00,,,0.63,,2013-08-01 03:32:00,
2013-07-31 22:43:00,79.0,75.0,29.96,SE,142,0.0,2.0,89,0.00,,,0.63,,2013-08-01 03:43:00,
2013-07-31 22:53:00,79.0,75.0,29.96,SE,142,0.0,3.0,89,0.00,,,0.63,,2013-08-01 03:53:00,
2013-07-31 23:03:00,79.0,75.0,29.96,SE,142,0.0,4.0,89,0.00,,,0.63,,2013-08-01 04:03:00,
2013-07-31 23:12:00,79.0,75.0,29.96,SE,142,0.0,4.0,89,0.00,,,0.63,,2013-08-01 04:12:00,
2013-07-31 23:22:00,79.0,75.0,29.96,SE,142,0.0,1.0,89,0.00,,,0.63,,2013-08-01 04:22:00,
2013-07-31 23:33:00,78.0,75.0,29.96,SE,142,0.0,2.0,90,0.00,,,0.63,,2013-08-01 04:33:00,
2013-07-31 23:43:00,78.0,75.0,29.96,SE,142,0.0,2.0,90,0.00,,,0.63,,2013-08-01 04:43:00,
2013-07-31 23:53:00,78.0,75.0,29.96,SE,142,0.0,2.0,90,0.00,,,0.63,,2013-08-01 04:53:00,